記事タイトル:Comet C/2003 A1 

最新の情報は「更新」や「再読み込み」ボタンを押してリロードしてご覧ください。

書き込み欄へ  ヘルプ
お名前: 佐藤 裕久   
外見上は、小惑星状のLINEAR天体として発見され、NEO Confirmation Pageに掲載され、
Haleakala(1.2-m反射)を含む他のCCD観測者によって拡散していることがわかった。
K. Lawrenceの報告では、1月7.3日UT、NEAT画像は少し拡散している。そして、8.3日は
また幾分拡散している。Klet天文台では、1月8.7日UT、M. Tichyが1.06-m KLENOT反射
の観測で得た画像では8″のコマがある。また、Ondrejov天文台では、1月8.8日UT、
P. Pravecが0.65-m f/3.6反射で、月の近く画像から「わずかに明白」な微かに小さい
コマを見出した。

発見位置は次のとおり、

     2003 UT             R.A. (2000) Decl.        m2
     Jan.  5.07007    1 08 36.07   - 6 18 54.8   18.4

暫定放物線軌道要素と位置推算表は次のとおり、

Orbital elements:
    C/2003 A1
T 2003 Jan. 13.452 TT                                   MPC
q   2.11485              (2000.0)            P               Q
                   Peri.  348.741       +0.709332       -0.390579
                   Node    51.726       +0.690746       +0.219338
e   1.0            Incl.   48.367       +0.140419       +0.894058
From 39 observations 2003 Jan. 5-8.

Ephemeris:
    C/2003 A1
Date    TT    R. A. (2000) Decl.     Delta      r     Elong.  Phase   m1
2003 01 01    01 06.59   -08 33.7    1.848    2.120    91.8    27.6  17.6
2003 01 11    01 12.22   -03 07.7    1.956    2.115    85.2    27.6  17.7
2003 01 21    01 19.98   +01 59.4    2.075    2.117    78.8    27.1  17.8
2003 01 31    01 29.56   +06 47.3    2.200    2.125    72.6    26.3  18.0
2003 02 10    01 40.71   +11 16.6    2.330    2.140    66.6    25.0  18.1
2003 02 20    01 53.23   +15 28.5    2.461    2.161    60.9    23.6  18.3
2003 03 02    02 07.01   +19 24.4    2.591    2.188    55.5    21.9  18.5
2003 03 12    02 21.97   +23 05.5    2.719    2.221    50.3    20.1  18.6
2003 03 22    02 38.02   +26 32.7    2.843    2.259    45.5    18.3  18.8
2003 04 01    02 55.16   +29 46.7    2.963    2.302    40.9    16.5  19.0
2003 04 11    03 13.36   +32 48.1    3.077    2.350    36.7    14.7  19.2
2003 04 21    03 32.60   +35 37.0    3.184    2.403    32.8    13.1  19.3

この軌道は、おそらく短周期軌道で、どちらかというとD/1783 W1 (Pigott)に
類似している。

(IAUC 8044、MPEC 2003-A56)
[2003年1月10日 0時38分49秒]

この記事への返信をどうぞ。
氏名
E-mail URL



記事一覧に戻る